DVA111 EYVI-EVRA

Flight info

Callsign DVA111
Flight time 0h 44m
Altitude 26000
Route TAGOL DCT URIDO DCT ERIVA DCT RA721 DCT RA722 DCT SAFNE
Aircraft B350/L-SBGRW/S

Departure

Time 2026-05-07 18:04
Airport Vilnius International Airport (EYVI)

Arrival

Time 2026-05-07 18:49
Airport Riga International Airport (EVRA)
Time Latitude Longitude Altitude Speed Heading
2026-05-07 17:43 54.64623 25.28837 653 ft 0 kts 349°
2026-05-07 18:02 54.64604 25.28842 654 ft 9 kts 345°
2026-05-07 18:02 54.64535 25.28814 652 ft 2 kts 68°
2026-05-07 18:03 54.64543 25.28952 654 ft 19 kts 104°
2026-05-07 18:03 54.64498 25.29128 655 ft 0 kts 114°
2026-05-07 18:03 54.64489 25.29161 652 ft 15 kts 116°
2026-05-07 18:04 54.64379 25.29249 655 ft 26 kts 204°
2026-05-07 18:04 54.63953 25.28946 637 ft 118 kts 200°
2026-05-07 18:04 54.62982 25.28378 848 ft 164 kts 200°
2026-05-07 18:04 54.61830 25.27788 1365 ft 181 kts 199°
2026-05-07 18:05 54.60593 25.27122 1907 ft 191 kts 200°
2026-05-07 18:05 54.59313 25.26358 2434 ft 198 kts 202°
2026-05-07 18:05 54.58015 25.25505 2954 ft 201 kts 204°
2026-05-07 18:05 54.56724 25.24571 3471 ft 201 kts 206°
2026-05-07 18:06 54.55456 25.23564 3980 ft 200 kts 209°
2026-05-07 18:06 54.54218 25.22499 4501 ft 198 kts 211°
2026-05-07 18:06 54.53012 25.21379 5004 ft 196 kts 212°
2026-05-07 18:06 54.51836 25.20206 5507 ft 194 kts 214°
2026-05-07 18:07 54.50691 25.18981 6021 ft 193 kts 216°
2026-05-07 18:07 54.49574 25.17712 6500 ft 196 kts 218°
2026-05-07 18:07 54.48445 25.16354 6961 ft 199 kts 219°
2026-05-07 18:07 54.47334 25.14925 7433 ft 200 kts 221°
2026-05-07 18:08 54.46244 25.13429 7916 ft 201 kts 223°
2026-05-07 18:08 54.45180 25.11872 8415 ft 201 kts 225°
2026-05-07 18:08 54.44145 25.10257 8918 ft 201 kts 226°
2026-05-07 18:08 54.43143 25.08591 9432 ft 200 kts 228°
2026-05-07 18:09 54.42437 25.06608 9979 ft 196 kts 259°
2026-05-07 18:09 54.42664 25.04327 10509 ft 202 kts 297°
2026-05-07 18:09 54.43619 25.02514 11018 ft 208 kts 313°
2026-05-07 18:09 54.44709 25.00852 11511 ft 210 kts 314°
2026-05-07 18:10 54.45867 24.99323 12029 ft 214 kts 327°
2026-05-07 18:10 54.47242 24.98261 12537 ft 217 kts 331°
2026-05-07 18:10 54.48619 24.97261 13053 ft 211 kts 331°
2026-05-07 18:10 54.49960 24.96295 13572 ft 207 kts 330°
2026-05-07 18:11 54.51265 24.95370 14051 ft 204 kts 331°
2026-05-07 18:11 54.52153 24.94747 14367 ft 203 kts 331°
2026-05-07 18:11 54.53948 24.93843 15017 ft 208 kts 351°
2026-05-07 18:11 54.55399 24.93851 15508 ft 210 kts 359°
2026-05-07 18:12 54.56854 24.94251 16001 ft 211 kts
2026-05-07 18:12 54.58296 24.94245 16499 ft 204 kts 345°
2026-05-07 18:12 54.59692 24.93852 17000 ft 203 kts 343°
2026-05-07 18:12 54.61087 24.93475 17519 ft 203 kts 345°
2026-05-07 18:13 54.62491 24.93136 17957 ft 209 kts 345°
2026-05-07 18:13 54.64013 24.92777 17969 ft 232 kts 346°
2026-05-07 18:13 54.65679 24.92397 17984 ft 249 kts 347°
2026-05-07 18:13 54.67422 24.91985 17976 ft 262 kts 347°
2026-05-07 18:14 54.69298 24.91523 17977 ft 275 kts 347°
2026-05-07 18:14 54.71197 24.91071 17980 ft 283 kts 347°
2026-05-07 18:14 54.73167 24.90605 17986 ft 288 kts 347°
2026-05-07 18:14 54.75166 24.90124 17988 ft 292 kts 347°
2026-05-07 18:15 54.77190 24.89635 17989 ft 295 kts 347°
2026-05-07 18:15 54.79229 24.89141 17982 ft 296 kts 347°
2026-05-07 18:15 54.81270 24.88646 17990 ft 297 kts 347°
2026-05-07 18:15 54.83323 24.88150 17988 ft 298 kts 347°
2026-05-07 18:16 54.85380 24.87651 17992 ft 299 kts 347°
2026-05-07 18:16 54.87442 24.87150 17993 ft 299 kts 347°
2026-05-07 18:16 54.89510 24.86647 17991 ft 300 kts 347°
2026-05-07 18:16 54.91577 24.86142 17990 ft 300 kts 347°
2026-05-07 18:17 54.93643 24.85642 17996 ft 300 kts 347°
2026-05-07 18:17 54.95716 24.85155 17994 ft 300 kts 348°
2026-05-07 18:17 54.97768 24.84687 17995 ft 300 kts 347°
2026-05-07 18:17 54.99830 24.84152 17993 ft 300 kts 346°
2026-05-07 18:18 55.01895 24.83614 17991 ft 300 kts 347°
2026-05-07 18:18 55.03965 24.83110 17992 ft 300 kts 347°
2026-05-07 18:18 55.06037 24.82610 17998 ft 300 kts 347°
2026-05-07 18:18 55.08109 24.82101 17995 ft 300 kts 347°
2026-05-07 18:19 55.10173 24.81590 17995 ft 300 kts 347°
2026-05-07 18:19 55.11571 24.81245 17990 ft 300 kts 347°
2026-05-07 18:19 55.13610 24.80744 17991 ft 300 kts 347°
2026-05-07 18:19 55.16373 24.80064 17986 ft 300 kts 347°
2026-05-07 18:20 55.17743 24.79725 17988 ft 300 kts 347°
2026-05-07 18:20 55.19808 24.79214 17987 ft 300 kts 347°
2026-05-07 18:20 55.21873 24.78704 17994 ft 300 kts 347°
2026-05-07 18:20 55.23936 24.78193 17986 ft 299 kts 347°
2026-05-07 18:21 55.25998 24.77682 17984 ft 299 kts 347°
2026-05-07 18:21 55.28038 24.77173 18214 ft 292 kts 346°
2026-05-07 18:21 55.30009 24.76671 18627 ft 278 kts 346°
2026-05-07 18:21 55.31882 24.76196 19118 ft 267 kts 345°
2026-05-07 18:22 55.33690 24.75742 19613 ft 258 kts 345°
2026-05-07 18:22 55.34854 24.75451 19943 ft 253 kts 345°
2026-05-07 18:22 55.37146 24.74878 20621 ft 245 kts 345°
2026-05-07 18:22 55.38820 24.74459 21141 ft 241 kts 344°
2026-05-07 18:23 55.40465 24.74046 21667 ft 237 kts 344°
2026-05-07 18:23 55.42089 24.73637 22201 ft 234 kts 344°
2026-05-07 18:23 55.43691 24.73234 22750 ft 231 kts 343°
2026-05-07 18:23 55.45251 24.72842 23300 ft 228 kts 343°
2026-05-07 18:24 55.46814 24.72448 23828 ft 225 kts 343°
2026-05-07 18:24 55.48361 24.72059 24260 ft 225 kts 342°
2026-05-07 18:24 55.49984 24.71647 24298 ft 246 kts 344°
2026-05-07 18:24 55.51747 24.71221 24309 ft 264 kts 345°
2026-05-07 18:25 55.53618 24.70763 24315 ft 278 kts 345°
2026-05-07 18:25 55.55571 24.70273 24314 ft 288 kts 345°
2026-05-07 18:25 55.57588 24.69767 24316 ft 296 kts 345°
2026-05-07 18:25 55.59649 24.69250 24316 ft 302 kts 345°
2026-05-07 18:26 55.61749 24.68723 24318 ft 306 kts 345°
2026-05-07 18:26 55.63841 24.68202 24320 ft 309 kts 346°
2026-05-07 18:26 55.65986 24.67721 24318 ft 311 kts 347°
2026-05-07 18:26 55.68139 24.67222 24314 ft 312 kts 345°
2026-05-07 18:27 55.70279 24.66573 24319 ft 312 kts 344°
2026-05-07 18:27 55.72435 24.65977 24318 ft 314 kts 346°
2026-05-07 18:27 55.74605 24.65461 24326 ft 315 kts 346°
2026-05-07 18:27 55.76783 24.64927 24324 ft 316 kts 345°
2026-05-07 18:28 55.78955 24.64363 24324 ft 316 kts 345°
2026-05-07 18:28 55.81139 24.63799 24323 ft 316 kts 345°
2026-05-07 18:28 55.83322 24.63244 24321 ft 317 kts 345°
2026-05-07 18:28 55.85502 24.62690 24329 ft 317 kts 345°
2026-05-07 18:29 55.87686 24.62130 24329 ft 317 kts 345°
2026-05-07 18:29 55.89842 24.61577 24328 ft 317 kts 345°
2026-05-07 18:29 55.92056 24.61010 24331 ft 317 kts 345°
2026-05-07 18:29 55.94215 24.60456 24329 ft 317 kts 345°
2026-05-07 18:30 55.96404 24.59893 24331 ft 317 kts 345°
2026-05-07 18:30 55.98592 24.59330 24330 ft 317 kts 345°
2026-05-07 18:30 56.00781 24.58766 24331 ft 317 kts 345°
2026-05-07 18:30 56.02944 24.58208 24330 ft 317 kts 345°
2026-05-07 18:31 56.05158 24.57638 23933 ft 330 kts 345°
2026-05-07 18:31 56.07485 24.57066 23201 ft 341 kts 347°
2026-05-07 18:31 56.09831 24.56512 22424 ft 338 kts 346°
2026-05-07 18:31 56.12139 24.55892 21661 ft 333 kts 345°
2026-05-07 18:32 56.14422 24.55257 20922 ft 330 kts 346°
2026-05-07 18:32 56.16682 24.54672 20202 ft 326 kts 347°
2026-05-07 18:32 56.18915 24.54107 19485 ft 322 kts 347°
2026-05-07 18:32 56.21118 24.53532 18791 ft 318 kts 347°
2026-05-07 18:33 56.23293 24.52960 18080 ft 314 kts 347°
2026-05-07 18:33 56.25462 24.52600 17330 ft 314 kts 357°
2026-05-07 18:33 56.27629 24.53068 16607 ft 315 kts
2026-05-07 18:33 56.29709 24.54326 15898 ft 316 kts 22°
2026-05-07 18:34 56.31600 24.56322 15206 ft 315 kts 34°
2026-05-07 18:34 56.33367 24.58642 14498 ft 312 kts 33°
2026-05-07 18:34 56.35148 24.60706 13786 ft 306 kts 24°
2026-05-07 18:34 56.37155 24.61997 12933 ft 300 kts 11°
2026-05-07 18:35 56.39200 24.62458 12101 ft 294 kts 358°
2026-05-07 18:35 56.41214 24.62127 11303 ft 288 kts 349°
2026-05-07 18:35 56.43165 24.61607 10550 ft 285 kts 351°
2026-05-07 18:35 56.45124 24.61161 9791 ft 282 kts 352°
2026-05-07 18:36 56.47063 24.60706 8891 ft 281 kts 352°
2026-05-07 18:36 56.48989 24.60238 7970 ft 276 kts 352°
2026-05-07 18:36 56.50797 24.59277 7048 ft 268 kts 335°
2026-05-07 18:36 56.52373 24.57533 6135 ft 264 kts 324°
2026-05-07 18:37 56.53651 24.55172 5176 ft 262 kts 311°
2026-05-07 18:37 56.54583 24.52339 4216 ft 264 kts 298°
2026-05-07 18:37 56.55111 24.49138 3266 ft 266 kts 285°
2026-05-07 18:37 56.55649 24.46052 2758 ft 243 kts 305°
2026-05-07 18:38 56.56438 24.43540 2735 ft 223 kts 303°
2026-05-07 18:38 56.57141 24.41053 2735 ft 220 kts 305°
2026-05-07 18:38 56.57920 24.38687 2735 ft 217 kts 307°
2026-05-07 18:38 56.58694 24.36348 2732 ft 213 kts 306°
2026-05-07 18:39 56.59424 24.34038 2733 ft 209 kts 305°
2026-05-07 18:39 56.60140 24.31753 2737 ft 207 kts 306°
2026-05-07 18:39 56.60854 24.29494 2738 ft 206 kts 306°
2026-05-07 18:39 56.61563 24.27246 2738 ft 205 kts 306°
2026-05-07 18:40 56.62261 24.25028 2739 ft 205 kts 306°
2026-05-07 18:40 56.62969 24.22786 2740 ft 204 kts 306°
2026-05-07 18:40 56.63672 24.20542 2743 ft 204 kts 306°
2026-05-07 18:40 56.64373 24.18305 2747 ft 204 kts 306°
2026-05-07 18:41 56.65078 24.16061 2747 ft 204 kts 306°
2026-05-07 18:41 56.65779 24.13822 2752 ft 204 kts 306°
2026-05-07 18:41 56.66479 24.11586 2751 ft 203 kts 305°
2026-05-07 18:41 56.67179 24.09347 2756 ft 203 kts 305°
2026-05-07 18:42 56.67876 24.07112 2751 ft 203 kts 305°
2026-05-07 18:42 56.68573 24.04881 2757 ft 203 kts 305°
2026-05-07 18:42 56.69263 24.02670 2754 ft 203 kts 305°
2026-05-07 18:42 56.69959 24.00433 2754 ft 201 kts 305°
2026-05-07 18:43 56.70624 23.98288 2755 ft 189 kts 305°
2026-05-07 18:43 56.71316 23.96356 2768 ft 175 kts 320°
2026-05-07 18:43 56.72247 23.95037 2773 ft 165 kts 336°
2026-05-07 18:43 56.73294 23.94321 2774 ft 158 kts 353°
2026-05-07 18:44 56.74373 23.94193 2780 ft 154 kts
2026-05-07 18:44 56.75434 23.94382 2770 ft 153 kts
2026-05-07 18:44 56.76494 23.94540 2763 ft 153 kts
2026-05-07 18:44 56.77548 23.94747 2765 ft 152 kts 10°
2026-05-07 18:45 56.78592 23.95006 2766 ft 151 kts 12°
2026-05-07 18:45 56.79594 23.95314 2781 ft 139 kts 14°
2026-05-07 18:45 56.80501 23.95645 2779 ft 127 kts 15°
2026-05-07 18:45 56.81347 23.95963 2696 ft 125 kts 13°
2026-05-07 18:46 56.82260 23.96135 2300 ft 140 kts
2026-05-07 18:46 56.83167 23.96179 1923 ft 128 kts
2026-05-07 18:46 56.84085 23.96158 1364 ft 132 kts 360°
2026-05-07 18:46 56.84967 23.96041 986 ft 125 kts
2026-05-07 18:47 56.85789 23.96082 838 ft 113 kts
2026-05-07 18:47 56.86533 23.96136 823 ft 106 kts
2026-05-07 18:47 56.87251 23.96209 726 ft 106 kts
2026-05-07 18:47 56.87971 23.96390 671 ft 103 kts
2026-05-07 18:48 56.88739 23.96485 579 ft 119 kts
2026-05-07 18:48 56.89590 23.96638 312 ft 123 kts
2026-05-07 18:48 56.90400 23.96780 135 ft 106 kts
2026-05-07 18:48 56.91061 23.96900 41 ft 73 kts
2026-05-07 18:49 56.91365 23.96950 43 ft 33 kts
2026-05-07 18:49 56.91564 23.96956 42 ft 24 kts
2026-05-07 18:49 56.91696 23.97026 40 ft 17 kts 38°
2026-05-07 18:49 56.91719 23.97156 41 ft 0 kts 101°
2026-05-07 18:51 56.91716 23.97187 41 ft 17 kts 96°
2026-05-07 18:51 56.91733 23.97405 41 ft 16 kts 20°
2026-05-07 18:51 56.91826 23.97426 40 ft 11 kts
2026-05-07 18:52 56.91900 23.97436 40 ft 10 kts
2026-05-07 18:52 56.91985 23.97440 40 ft 15 kts
2026-05-07 18:52 56.92092 23.97452 40 ft 16 kts
2026-05-07 18:52 56.92207 23.97473 40 ft 17 kts
2026-05-07 18:53 56.92327 23.97497 40 ft 18 kts
2026-05-07 18:53 56.92450 23.97513 39 ft 18 kts
2026-05-07 18:53 56.92577 23.97529 39 ft 19 kts
2026-05-07 18:53 56.92706 23.97567 39 ft 19 kts 10°
2026-05-07 18:54 56.92836 23.97595 39 ft 19 kts
2026-05-07 18:54 56.92940 23.97667 39 ft 13 kts 77°
2026-05-07 18:54 56.92933 23.97822 39 ft 11 kts 101°
2026-05-07 18:54 56.92921 23.97960 39 ft 13 kts 91°
2026-05-07 18:55 56.92921 23.98152 39 ft 15 kts 89°
2026-05-07 18:55 56.92987 23.98226 39 ft 11 kts
2026-05-07 18:55 56.93038 23.98283 39 ft 9 kts 54°
2026-05-07 18:55 56.93088 23.98339 39 ft 8 kts
2026-05-07 18:56 56.93129 23.98342 39 ft 2 kts 354°
2026-05-07 18:56 56.93139 23.98331 39 ft 1 kts 298°
2026-05-07 18:56 56.93141 23.98294 39 ft 0 kts 270°